View from above orbital plane
|
View from above satellite
|
Ground track
|
The orbit data is extracted from the following two-line orbital elements,
1 39446U 13066AG 22176.18717974 .00001557 00000-0 20612-3 0 9996
2 39446 97.6857 139.9158 0070229 64.6553 296.1910 14.79587329462190
Epoch (UTC): | 25 June 2022 04:29:32 |
Eccentricity: | 0.0070229 |
inclination: | 97.6857° |
perigee height: | 581 km |
apogee height: | 680 km |
right ascension of ascending node: | 139.9158° |
argument of perigee: | 64.6553° |
revolutions per day: | 14.79587329 |
mean anomaly at epoch: | 296.1910° |
orbit number at epoch: | 46219 |
The dashed part of the orbit path shows where the satellite is in the earth's shadow,
|
|